Flag for Spain Weather past 2 weeks in Granada, Spain

Now
66 °F

Clear.


Feels Like: 66 °F
Forecast: 56 / 82 °F
Wind: 2 mph from North

Location: Granada / Aeropuerto

Current Time: Oct 1, 2014 at 2:02:28 AM

Latest Report: Oct 1, 2014 at 1:30 AM


Visibility: 10 mi

Pressure: 30.18 "Hg

Humidity: 88%

Dew point: 63 °F

Location of GranadaLocation

Historic Weather in Granada — Graph

°F

Granada temperature yesterday

Maximum temperature yesterday: 84 °F (at 5:00 PM)
Minimum temperature yesterday: 57 °F (at 2:30 AM)
Average temperature yesterday: 68 °F

Past Weeks' High & Low Weather Summary

 TemperatureHumidityPressure
High90 °F (Sep 16, 1:00 PM)100% (Sep 18, 8:30 AM)30.24 "Hg (Sep 18, 8:30 AM)
Low52 °F (Sep 16, 6:00 AM)21% (Sep 16, 2:30 PM)29.83 "Hg (Sep 16, 3:30 PM)
Average67 °F69%30.06 "Hg
* Reported Sep 16 6:00 AM — Oct 1 1:00 AM, Granada, Weather by CustomWeather, © 2014

Note: Actual official high and low records may vary slightly from our data, if they occured in-between our weather recording intervals... More about our weather records

Advertising

Granada weather history for previous 24 hours

 ConditionsComfort  
Time TempWeatherWind HumidityBarometerVisibility
1:00 AM
Oct 1
66 °FClear.No wind83%30.18 "Hg10 mi
12:30 AM66 °FClear.No wind83%30.18 "Hg10 mi
12:00 AM66 °FClear.3 mph83%30.18 "Hg10 mi
11:30 PM
Sep 30
68 °FClear.1 mph78%30.18 "Hg10 mi
10:30 PM72 °FPassing clouds.No wind73%30.18 "HgN/A
10:00 PM75 °FPassing clouds.3 mph57%30.18 "HgN/A
9:30 PM73 °FPassing clouds.2 mph61%30.18 "HgN/A
9:00 PM72 °FPassing clouds.No wind73%30.15 "HgN/A
8:30 PM73 °FPassing clouds.5 mph61%30.15 "HgN/A
8:00 PM75 °FPassing clouds.10 mph61%30.15 "HgN/A
7:30 PM77 °FScattered clouds.10 mph61%30.15 "HgN/A
7:00 PM79 °FScattered clouds.10 mph58%30.15 "HgN/A
6:30 PM81 °FScattered clouds.No wind45%30.12 "HgN/A
6:00 PM82 °FScattered clouds.1 mph42%30.15 "HgN/A
5:30 PM84 °FPassing clouds.1 mph37%30.15 "HgN/A
5:00 PM84 °FPassing clouds.2 mph40%30.15 "HgN/A
4:30 PM82 °FPassing clouds.2 mph40%30.15 "HgN/A
4:00 PM82 °FPassing clouds.2 mph42%30.15 "HgN/A
3:30 PM82 °FPassing clouds.3 mph45%30.15 "HgN/A
3:00 PM79 °FPassing clouds.2 mph51%30.18 "HgN/A
2:30 PM79 °FPassing clouds.1 mph51%30.18 "HgN/A
2:00 PM77 °FPassing clouds.No wind54%30.21 "HgN/A
1:30 PM75 °FPassing clouds.1 mph61%30.21 "HgN/A
1:00 PM75 °FPassing clouds.No wind57%30.21 "HgN/A
12:30 PM73 °FPassing clouds.1 mph61%30.24 "HgN/A
12:00 PM70 °FPassing clouds.No wind73%30.24 "HgN/A
11:30 AM68 °FPassing clouds.No wind78%30.24 "HgN/A
11:00 AM64 °FScattered clouds.1 mph94%30.24 "HgN/A
10:30 AM64 °FPassing clouds.No wind94%30.24 "Hg6 mi
10:00 AM61 °FPassing clouds.1 mph100%30.24 "Hg4 mi
9:54 AM61 °FPassing clouds.1 mph100%30.24 "Hg4 mi
9:30 AM59 °FFog.No wind100%30.24 "Hg1 mi
9:00 AM57 °FCool.No wind100%30.24 "Hg1 mi
8:30 AM57 °FCool.No wind100%30.21 "Hg1 mi
8:00 AM57 °FFog.No wind100%30.21 "Hg0 mi
7:30 AM57 °FFog.1 mph100%30.21 "Hg0 mi
7:00 AM57 °FFog.No wind100%30.21 "Hg0 mi
6:30 AM57 °FFog.1 mph100%30.21 "Hg1 mi
6:00 AM57 °FFog.1 mph100%30.21 "Hg0 mi
5:30 AM57 °FFog.No wind100%30.21 "Hg0 mi
5:00 AM57 °FFog.No wind100%30.21 "Hg0 mi
4:30 AM57 °FFog.No wind100%30.21 "Hg1 mi
4:00 AM57 °FFog.No wind100%30.24 "Hg0 mi
3:30 AM57 °FFog.No wind100%30.24 "Hg0 mi
3:00 AM57 °FFog.1 mph100%30.24 "Hg0 mi
2:30 AM57 °FClear.No wind100%30.24 "Hg10 mi
2:00 AM59 °FClear.2 mph94%30.24 "Hg10 mi
Weather by CustomWeather, © 2014

See weather overviewHow to use our weather pages